Location: Bethel Church
(38.0159°N, 88.7292°W)
Time: 03:31:58
(UTC+00:00)

Meteor 1-27 Rocket - Pass Details

Date: 08 December 2021
Orbit: 831 x 909 km, 81.3° (Epoch: 21 January)

Event Time Altitude Azimuth Distance (km) Brightness Sun altitude
Rises 12:13:32 0° 341° (NNW) 3,439 6.5 -8.9°
Reaches altitude 10° 12:16:07 10° 333° (NNW) 2,510 5.7 -8.4°
Maximum altitude 12:21:14 35° 269° (W) 1,372 4.4 -7.5°
Drops below altitude 10° 12:26:25 10° 205° (SSW) 2,543 6.2 -6.5°
Sets 12:29:04 0° 197° (SSW) 3,489 7.0 -6.1°
